Time,TemperatureF,DewpointF,PressureIn,WindDirection,WindDirectionDegrees,WindSpeedMPH,WindSpeedGustMPH,Humidity,HourlyPrecipIn,Conditions,Clouds,dailyrainin,SoftwareType,DateUTC
2013-08-13 00:02:00,62.2,56.3,29.97,NW,315,6.0,7.0,81,0.00,,,0.00,meteohub,2013-08-13 05:02:00,
2013-08-13 00:07:00,62.2,56.3,29.97,NW,315,6.0,7.0,81,0.00,,,0.00,meteohub,2013-08-13 05:07:00,
2013-08-13 00:12:00,62.1,56.1,29.97,NW,315,5.0,7.0,81,0.00,,,0.00,meteohub,2013-08-13 05:12:00,
2013-08-13 00:17:00,61.9,55.9,29.97,NW,315,6.0,7.0,81,0.00,,,0.00,meteohub,2013-08-13 05:17:00,
2013-08-13 00:23:00,61.7,55.8,29.97,NW,315,6.0,7.0,81,0.00,,,0.00,meteohub,2013-08-13 05:23:00,
2013-08-13 00:28:00,61.5,55.6,29.98,North,0,4.0,7.0,81,0.00,,,0.00,meteohub,2013-08-13 05:28:00,
2013-08-13 00:33:00,61.3,55.8,29.98,North,0,4.0,7.0,82,0.00,,,0.00,meteohub,2013-08-13 05:33:00,
2013-08-13 00:38:00,61.0,55.0,29.98,North,0,4.0,7.0,81,0.00,,,0.00,meteohub,2013-08-13 05:38:00,
2013-08-13 00:43:00,60.4,54.9,29.98,North,0,3.0,5.0,82,0.00,,,0.00,meteohub,2013-08-13 05:43:00,
2013-08-13 00:48:00,60.3,54.7,29.98,NW,315,3.0,5.0,82,0.00,,,0.00,meteohub,2013-08-13 05:48:00,
2013-08-13 00:53:00,60.3,54.7,29.99,North,0,4.0,4.0,82,0.00,,,0.00,meteohub,2013-08-13 05:53:00,
2013-08-13 00:58:00,60.1,54.9,29.99,North,0,2.0,4.0,83,0.00,,,0.00,meteohub,2013-08-13 05:58:00,
2013-08-13 01:03:00,60.1,54.9,29.99,North,0,3.0,4.0,83,0.00,,,0.00,meteohub,2013-08-13 06:03:00,
2013-08-13 01:08:00,59.9,54.3,29.99,NE,45,4.0,4.0,82,0.00,,,0.00,meteohub,2013-08-13 06:08:00,
2013-08-13 01:13:00,59.9,54.7,29.99,NE,45,4.0,4.0,83,0.00,,,0.00,meteohub,2013-08-13 06:13:00,
2013-08-13 01:18:00,60.1,54.9,29.99,NE,45,5.0,5.0,83,0.00,,,0.00,meteohub,2013-08-13 06:18:00,
2013-08-13 01:23:00,60.1,54.9,29.99,NE,45,4.0,5.0,83,0.00,,,0.00,meteohub,2013-08-13 06:23:00,
2013-08-13 01:28:00,59.9,54.7,29.99,NE,45,4.0,5.0,83,0.00,,,0.00,meteohub,2013-08-13 06:28:00,
2013-08-13 01:34:00,59.7,54.5,29.99,North,0,4.0,5.0,83,0.00,,,0.00,meteohub,2013-08-13 06:34:00,
2013-08-13 01:39:00,59.5,54.3,29.99,NE,45,5.0,5.0,83,0.00,,,0.00,meteohub,2013-08-13 06:39:00,
2013-08-13 01:44:00,59.5,54.3,29.99,NE,45,3.0,7.0,83,0.00,,,0.00,meteohub,2013-08-13 06:44:00,
2013-08-13 01:49:00,59.4,54.1,29.99,North,0,4.0,7.0,83,0.00,,,0.00,meteohub,2013-08-13 06:49:00,
2013-08-13 01:54:00,59.4,54.1,30.00,North,0,4.0,7.0,83,0.00,,,0.00,meteohub,2013-08-13 06:54:00,
2013-08-13 01:59:00,59.5,54.3,29.99,North,0,3.0,4.0,83,0.00,,,0.00,meteohub,2013-08-13 06:59:00,
2013-08-13 02:04:00,59.5,54.3,29.99,NNE,23,4.0,4.0,83,0.00,,,0.00,meteohub,2013-08-13 07:04:00,
2013-08-13 02:09:00,59.7,54.1,30.00,WSW,248,5.0,5.0,82,0.00,,,0.00,meteohub,2013-08-13 07:09:00,
2013-08-13 02:14:00,59.5,54.0,29.99,North,0,5.0,5.0,82,0.00,,,0.00,meteohub,2013-08-13 07:14:00,
2013-08-13 02:19:00,59.4,53.8,29.99,North,0,6.0,6.0,82,0.00,,,0.00,meteohub,2013-08-13 07:19:00,
2013-08-13 02:24:00,59.2,53.6,29.99,NE,45,6.0,6.0,82,0.00,,,0.00,meteohub,2013-08-13 07:24:00,
2013-08-13 02:29:00,59.2,53.6,30.00,North,0,5.0,7.0,82,0.00,,,0.00,meteohub,2013-08-13 07:29:00,
2013-08-13 02:34:00,59.2,53.6,30.00,North,0,5.0,7.0,82,0.00,,,0.00,meteohub,2013-08-13 07:34:00,
2013-08-13 02:39:00,59.2,53.4,30.00,North,0,4.0,8.0,81,0.00,,,0.00,meteohub,2013-08-13 07:39:00,
2013-08-13 02:45:00,59.0,53.2,30.00,NE,45,8.0,8.0,81,0.00,,,0.00,meteohub,2013-08-13 07:45:00,
2013-08-13 02:50:00,58.8,53.4,30.00,NE,45,5.0,8.0,82,0.00,,,0.00,meteohub,2013-08-13 07:50:00,
2013-08-13 02:55:00,58.6,53.2,30.00,NE,45,5.0,8.0,82,0.00,,,0.00,meteohub,2013-08-13 07:55:00,
2013-08-13 03:00:00,58.5,53.1,30.00,NE,45,6.0,8.0,82,0.00,,,0.00,meteohub,2013-08-13 08:00:00,
2013-08-13 03:05:00,58.5,53.1,30.00,NE,45,6.0,8.0,82,0.00,,,0.00,meteohub,2013-08-13 08:05:00,
2013-08-13 03:10:00,58.1,52.7,30.00,North,0,5.0,8.0,82,0.00,,,0.00,meteohub,2013-08-13 08:10:00,
2013-08-13 03:15:00,57.9,52.5,30.00,North,0,4.0,7.0,82,0.00,,,0.00,meteohub,2013-08-13 08:15:00,
2013-08-13 03:20:00,57.7,52.3,30.00,NE,45,4.0,7.0,82,0.00,,,0.00,meteohub,2013-08-13 08:20:00,
2013-08-13 03:25:00,57.4,52.0,30.01,NNE,23,5.0,7.0,82,0.00,,,0.00,meteohub,2013-08-13 08:25:00,
2013-08-13 03:30:00,57.0,52.0,30.00,NE,45,4.0,6.0,83,0.00,,,0.00,meteohub,2013-08-13 08:30:00,
2013-08-13 03:36:00,56.7,51.6,30.00,North,0,6.0,6.0,83,0.00,,,0.00,meteohub,2013-08-13 08:36:00,
2013-08-13 03:41:00,56.5,51.4,30.00,NE,45,6.0,6.0,83,0.00,,,0.00,meteohub,2013-08-13 08:41:00,
2013-08-13 03:46:00,56.3,51.3,30.01,North,0,5.0,6.0,83,0.00,,,0.00,meteohub,2013-08-13 08:46:00,
2013-08-13 03:51:00,55.9,50.9,30.00,North,0,9.0,9.0,83,0.00,,,0.00,meteohub,2013-08-13 08:51:00,
2013-08-13 03:56:00,55.9,50.9,30.01,North,0,4.0,9.0,83,0.00,,,0.00,meteohub,2013-08-13 08:56:00,
2013-08-13 04:01:00,55.8,50.7,30.01,NE,45,4.0,9.0,83,0.00,,,0.00,meteohub,2013-08-13 09:01:00,
2013-08-13 04:06:00,55.6,50.5,30.00,North,0,5.0,9.0,83,0.00,,,0.00,meteohub,2013-08-13 09:06:00,
2013-08-13 04:11:00,55.2,50.2,30.00,NE,45,4.0,6.0,83,0.00,,,0.00,meteohub,2013-08-13 09:11:00,
2013-08-13 04:17:00,55.0,50.0,30.00,North,0,6.0,6.0,83,0.00,,,0.00,meteohub,2013-08-13 09:17:00,
2013-08-13 04:22:00,54.9,49.8,30.00,North,0,4.0,6.0,83,0.00,,,0.00,meteohub,2013-08-13 09:22:00,
2013-08-13 04:27:00,54.7,49.6,30.01,North,0,4.0,6.0,83,0.00,,,0.00,meteohub,2013-08-13 09:27:00,
2013-08-13 04:32:00,54.7,50.0,30.01,NE,45,4.0,6.0,84,0.00,,,0.00,meteohub,2013-08-13 09:32:00,
2013-08-13 04:37:00,54.5,49.8,30.01,North,0,5.0,6.0,84,0.00,,,0.00,meteohub,2013-08-13 09:37:00,
2013-08-13 04:42:00,54.5,49.8,30.01,North,0,4.0,6.0,84,0.00,,,0.00,meteohub,2013-08-13 09:42:00,
2013-08-13 04:47:00,54.3,49.6,30.01,North,0,7.0,7.0,84,0.00,,,0.00,meteohub,2013-08-13 09:47:00,
2013-08-13 04:52:00,54.3,49.8,30.01,NE,45,4.0,7.0,85,0.00,,,0.00,meteohub,2013-08-13 09:52:00,
2013-08-13 04:57:00,54.1,49.8,30.01,NE,45,4.0,7.0,85,0.00,,,0.00,meteohub,2013-08-13 09:57:00,
2013-08-13 05:02:00,54.1,49.8,30.01,NE,45,6.0,7.0,85,0.00,,,0.00,meteohub,2013-08-13 10:02:00,
2013-08-13 05:07:00,54.1,49.8,30.01,NE,45,4.0,6.0,85,0.00,,,0.00,meteohub,2013-08-13 10:07:00,
2013-08-13 05:13:00,54.0,49.6,30.01,NE,45,6.0,6.0,85,0.00,,,0.00,meteohub,2013-08-13 10:13:00,
2013-08-13 05:18:00,53.8,49.5,30.01,NE,45,6.0,6.0,85,0.00,,,0.00,meteohub,2013-08-13 10:18:00,
2013-08-13 05:23:00,53.6,49.3,30.01,North,0,5.0,6.0,85,0.00,,,0.00,meteohub,2013-08-13 10:23:00,
2013-08-13 05:28:00,53.6,49.3,30.01,NE,45,5.0,6.0,85,0.00,,,0.00,meteohub,2013-08-13 10:28:00,
2013-08-13 05:33:00,53.4,49.3,30.01,NE,45,8.0,8.0,86,0.00,,,0.00,meteohub,2013-08-13 10:33:00,
2013-08-13 05:38:00,53.4,49.6,30.01,NE,45,8.0,8.0,87,0.00,,,0.00,meteohub,2013-08-13 10:38:00,
2013-08-13 05:43:00,53.4,49.6,30.01,NE,45,6.0,8.0,87,0.00,,,0.00,meteohub,2013-08-13 10:43:00,
2013-08-13 05:48:00,53.1,49.3,30.01,NE,45,6.0,8.0,87,0.00,,,0.00,meteohub,2013-08-13 10:48:00,
2013-08-13 05:53:00,52.9,49.1,30.01,NE,45,7.0,8.0,87,0.00,,,0.00,meteohub,2013-08-13 10:53:00,
2013-08-13 05:58:00,52.9,49.5,30.02,NE,45,5.0,7.0,88,0.00,,,0.00,meteohub,2013-08-13 10:58:00,
2013-08-13 06:03:00,52.9,49.5,30.02,North,0,5.0,7.0,88,0.00,,,0.00,meteohub,2013-08-13 11:03:00,
2013-08-13 06:09:00,53.2,50.0,30.02,NE,45,8.0,8.0,89,0.00,,,0.00,meteohub,2013-08-13 11:09:00,
2013-08-13 06:14:00,53.4,50.2,30.03,NE,45,5.0,8.0,89,0.00,,,0.00,meteohub,2013-08-13 11:14:00,
2013-08-13 06:19:00,53.2,50.0,30.02,NE,45,7.0,8.0,89,0.00,,,0.00,meteohub,2013-08-13 11:19:00,
2013-08-13 06:24:00,53.2,50.0,30.02,NE,45,8.0,8.0,89,0.00,,,0.00,meteohub,2013-08-13 11:24:00,
2013-08-13 06:29:00,53.2,50.0,30.02,NE,45,6.0,8.0,89,0.00,,,0.00,meteohub,2013-08-13 11:29:00,
2013-08-13 06:34:00,53.4,50.2,30.03,North,0,5.0,8.0,89,0.00,,,0.00,meteohub,2013-08-13 11:34:00,
2013-08-13 06:39:00,53.4,50.2,30.03,NNE,23,6.0,8.0,89,0.00,,,0.00,meteohub,2013-08-13 11:39:00,
2013-08-13 06:44:00,54.1,50.9,30.03,North,0,7.0,7.0,89,0.00,,,0.00,meteohub,2013-08-13 11:44:00,
2013-08-13 06:49:00,55.0,51.8,30.03,NE,45,5.0,7.0,89,0.00,,,0.00,meteohub,2013-08-13 11:49:00,
2013-08-13 06:54:00,55.8,52.5,30.04,NE,45,4.0,7.0,89,0.00,,,0.00,meteohub,2013-08-13 11:54:00,
2013-08-13 06:59:00,56.3,52.9,30.04,NE,45,5.0,7.0,88,0.00,,,0.00,meteohub,2013-08-13 11:59:00,
2013-08-13 07:04:00,56.5,52.9,30.04,North,0,6.0,6.0,88,0.00,,,0.00,meteohub,2013-08-13 12:04:00,
2013-08-13 07:09:00,56.8,53.1,30.04,NE,45,4.0,7.0,87,0.00,,,0.00,meteohub,2013-08-13 12:09:00,
2013-08-13 07:15:00,58.1,54.0,30.04,North,0,5.0,7.0,86,0.00,,,0.00,meteohub,2013-08-13 12:15:00,
2013-08-13 07:20:00,58.6,54.1,30.04,NE,45,6.0,7.0,85,0.00,,,0.00,meteohub,2013-08-13 12:20:00,
2013-08-13 07:25:00,59.0,54.1,30.04,North,0,5.0,7.0,84,0.00,,,0.00,meteohub,2013-08-13 12:25:00,
2013-08-13 07:30:00,59.2,54.0,30.05,North,0,7.0,7.0,83,0.00,,,0.00,meteohub,2013-08-13 12:30:00,
2013-08-13 07:35:00,59.5,54.0,30.04,NE,45,6.0,8.0,82,0.00,,,0.00,meteohub,2013-08-13 12:35:00,
2013-08-13 07:40:00,59.9,54.3,30.05,NE,45,5.0,8.0,82,0.00,,,0.00,meteohub,2013-08-13 12:40:00,
2013-08-13 07:45:00,60.4,54.9,30.05,NE,45,6.0,8.0,82,0.00,,,0.00,meteohub,2013-08-13 12:45:00,
2013-08-13 07:50:00,61.0,54.7,30.05,North,0,7.0,7.0,80,0.00,,,0.00,meteohub,2013-08-13 12:50:00,
2013-08-13 07:55:00,61.0,54.7,30.05,NNE,23,8.0,8.0,80,0.00,,,0.00,meteohub,2013-08-13 12:55:00,
2013-08-13 08:00:00,61.0,54.5,30.06,NE,45,8.0,8.0,79,0.00,,,0.00,meteohub,2013-08-13 13:00:00,
2013-08-13 08:05:00,60.8,54.3,30.05,NE,45,8.0,9.0,79,0.00,,,0.00,meteohub,2013-08-13 13:05:00,
2013-08-13 08:10:00,60.8,54.3,30.05,NE,45,7.0,11.0,79,0.00,,,0.00,meteohub,2013-08-13 13:10:00,
2013-08-13 08:15:00,61.0,54.5,30.05,NE,45,8.0,11.0,79,0.00,,,0.00,meteohub,2013-08-13 13:15:00,
2013-08-13 08:20:00,61.3,55.0,30.06,NE,45,8.0,11.0,80,0.00,,,0.00,meteohub,2013-08-13 13:20:00,
2013-08-13 08:26:00,61.7,55.4,30.06,NE,45,8.0,10.0,80,0.00,,,0.00,meteohub,2013-08-13 13:26:00,
2013-08-13 08:31:00,61.2,54.7,30.06,NE,45,8.0,10.0,79,0.00,,,0.00,meteohub,2013-08-13 13:31:00,
2013-08-13 08:36:00,60.6,54.7,30.06,East,90,5.0,10.0,81,0.00,,,0.00,meteohub,2013-08-13 13:36:00,
2013-08-13 08:41:00,61.0,54.7,30.07,NE,45,5.0,9.0,80,0.00,,,0.00,meteohub,2013-08-13 13:41:00,
2013-08-13 08:46:00,61.3,55.4,30.07,NE,45,6.0,8.0,81,0.00,,,0.00,meteohub,2013-08-13 13:46:00,
2013-08-13 08:51:00,61.7,55.8,30.07,North,0,6.0,8.0,81,0.00,,,0.00,meteohub,2013-08-13 13:51:00,
2013-08-13 08:56:00,62.1,56.5,30.07,NE,45,8.0,8.0,82,0.00,,,0.00,meteohub,2013-08-13 13:56:00,
2013-08-13 09:01:00,62.4,56.8,30.07,NE,45,4.0,8.0,82,0.00,,,0.00,meteohub,2013-08-13 14:01:00,
2013-08-13 09:06:00,62.8,56.8,30.08,NE,45,5.0,8.0,81,0.00,,,0.00,meteohub,2013-08-13 14:06:00,
2013-08-13 09:11:00,63.1,57.2,30.07,NNE,23,5.0,8.0,81,0.00,,,0.00,meteohub,2013-08-13 14:11:00,
2013-08-13 09:17:00,63.9,57.9,30.08,NE,45,4.0,8.0,81,0.00,,,0.00,meteohub,2013-08-13 14:17:00,
2013-08-13 09:22:00,64.2,58.3,30.08,North,0,5.0,6.0,81,0.00,,,0.00,meteohub,2013-08-13 14:22:00,
2013-08-13 09:27:00,64.6,58.6,30.08,NE,45,5.0,6.0,81,0.00,,,0.00,meteohub,2013-08-13 14:27:00,
2013-08-13 09:32:00,64.6,58.6,30.08,NE,45,6.0,7.0,81,0.00,,,0.00,meteohub,2013-08-13 14:32:00,
2013-08-13 09:37:00,65.3,59.0,30.08,SE,135,2.0,7.0,80,0.00,,,0.00,meteohub,2013-08-13 14:37:00,
2013-08-13 09:42:00,65.7,59.0,30.09,NE,45,6.0,7.0,79,0.00,,,0.00,meteohub,2013-08-13 14:42:00,
2013-08-13 09:47:00,65.8,58.8,30.08,East,90,4.0,7.0,78,0.00,,,0.00,meteohub,2013-08-13 14:47:00,
2013-08-13 09:52:00,66.4,58.6,30.09,NE,45,7.0,8.0,76,0.00,,,0.00,meteohub,2013-08-13 14:52:00,
2013-08-13 09:57:00,66.6,58.5,30.09,North,0,6.0,8.0,75,0.00,,,0.00,meteohub,2013-08-13 14:57:00,
2013-08-13 10:02:00,67.1,58.8,30.09,NE,45,6.0,8.0,75,0.00,,,0.00,meteohub,2013-08-13 15:02:00,
2013-08-13 10:07:00,67.3,58.6,30.09,NE,45,4.0,7.0,74,0.00,,,0.00,meteohub,2013-08-13 15:07:00,
2013-08-13 10:13:00,67.5,58.5,30.09,NE,45,3.0,7.0,73,0.00,,,0.00,meteohub,2013-08-13 15:13:00,
2013-08-13 10:18:00,68.0,58.6,30.09,West,270,3.0,7.0,72,0.00,,,0.00,meteohub,2013-08-13 15:18:00,
2013-08-13 10:23:00,68.4,58.6,30.09,NE,45,6.0,7.0,71,0.00,,,0.00,meteohub,2013-08-13 15:23:00,
2013-08-13 10:28:00,68.4,58.6,30.09,North,0,8.0,8.0,71,0.00,,,0.00,meteohub,2013-08-13 15:28:00,
2013-08-13 10:33:00,68.4,58.3,30.09,NE,45,6.0,8.0,70,0.00,,,0.00,meteohub,2013-08-13 15:33:00,
2013-08-13 10:38:00,68.5,57.6,30.08,NE,45,7.0,8.0,68,0.00,,,0.00,meteohub,2013-08-13 15:38:00,
2013-08-13 10:43:00,68.7,57.7,30.09,NE,45,2.0,9.0,68,0.00,,,0.00,meteohub,2013-08-13 15:43:00,
2013-08-13 10:48:00,69.3,58.3,30.08,NNE,23,5.0,9.0,68,0.00,,,0.00,meteohub,2013-08-13 15:48:00,
2013-08-13 10:53:00,69.3,57.9,30.09,East,90,5.0,9.0,67,0.00,,,0.00,meteohub,2013-08-13 15:53:00,
2013-08-13 10:59:00,69.4,57.6,30.08,NW,315,3.0,11.0,66,0.00,,,0.00,meteohub,2013-08-13 15:59:00,
2013-08-13 11:04:00,69.8,57.0,30.09,ENE,68,6.0,11.0,64,0.00,,,0.00,meteohub,2013-08-13 16:04:00,
2013-08-13 11:09:00,68.9,56.3,30.08,West,270,1.0,11.0,64,0.00,,,0.00,meteohub,2013-08-13 16:09:00,
2013-08-13 11:14:00,70.0,56.8,30.08,NE,45,6.0,8.0,63,0.00,,,0.00,meteohub,2013-08-13 16:14:00,
2013-08-13 11:19:00,70.3,56.3,30.08,North,0,7.0,8.0,61,0.00,,,0.00,meteohub,2013-08-13 16:19:00,
2013-08-13 11:25:00,70.9,56.3,30.08,NE,45,9.0,10.0,60,0.00,,,0.00,meteohub,2013-08-13 16:25:00,
2013-08-13 11:30:00,70.7,55.6,30.08,NE,45,7.0,11.0,59,0.00,,,0.00,meteohub,2013-08-13 16:30:00,
2013-08-13 11:35:00,71.6,56.1,30.08,East,90,4.0,11.0,58,0.00,,,0.00,meteohub,2013-08-13 16:35:00,
2013-08-13 11:40:00,72.1,56.5,30.08,East,90,6.0,11.0,58,0.00,,,0.00,meteohub,2013-08-13 16:40:00,
2013-08-13 11:45:00,74.5,58.3,30.08,North,0,4.0,8.0,57,0.00,,,0.00,meteohub,2013-08-13 16:45:00,
2013-08-13 11:50:00,74.5,58.3,30.08,North,0,4.0,8.0,57,0.00,,,0.00,meteohub,2013-08-13 16:50:00,
2013-08-13 11:55:00,73.9,55.8,30.09,East,90,1.0,8.0,53,0.00,,,0.00,meteohub,2013-08-13 16:55:00,
2013-08-13 12:01:00,73.0,54.3,30.09,SE,135,1.0,5.0,52,0.00,,,0.00,meteohub,2013-08-13 17:01:00,
2013-08-13 12:06:00,74.3,55.6,30.09,North,0,4.0,5.0,52,0.00,,,0.00,meteohub,2013-08-13 17:06:00,
2013-08-13 12:12:00,73.2,54.5,30.09,NE,45,7.0,7.0,52,0.00,,,0.00,meteohub,2013-08-13 17:12:00,
2013-08-13 12:18:00,73.0,54.3,30.09,NE,45,7.0,8.0,52,0.00,,,0.00,meteohub,2013-08-13 17:18:00,
2013-08-13 12:23:00,73.0,54.9,30.09,NE,45,8.0,10.0,53,0.00,,,0.00,meteohub,2013-08-13 17:23:00,
2013-08-13 12:28:00,73.0,54.3,30.09,NE,45,6.0,10.0,52,0.00,,,0.00,meteohub,2013-08-13 17:28:00,
2013-08-13 12:33:00,73.4,54.7,30.09,South,180,5.0,10.0,52,0.00,,,0.00,meteohub,2013-08-13 17:33:00,
2013-08-13 12:38:00,74.8,56.1,30.09,NE,45,8.0,9.0,52,0.00,,,0.00,meteohub,2013-08-13 17:38:00,
2013-08-13 12:43:00,74.1,53.2,30.09,NE,45,11.0,11.0,48,0.00,,,0.00,meteohub,2013-08-13 17:43:00,
2013-08-13 12:48:00,73.8,52.3,30.09,NE,45,6.0,13.0,47,0.00,,,0.00,meteohub,2013-08-13 17:48:00,
2013-08-13 12:53:00,73.9,51.8,30.09,NE,45,11.0,13.0,46,0.00,,,0.00,meteohub,2013-08-13 17:53:00,
2013-08-13 12:59:00,73.8,52.9,30.09,ESE,113,4.0,13.0,48,0.00,,,0.00,meteohub,2013-08-13 17:59:00,
2013-08-13 13:04:00,73.9,53.1,30.08,SE,135,6.0,11.0,48,0.00,,,0.00,meteohub,2013-08-13 18:04:00,
2013-08-13 13:09:00,77.2,54.1,30.08,North,0,8.0,11.0,45,0.00,,,0.00,meteohub,2013-08-13 18:09:00,
2013-08-13 13:14:00,76.6,54.3,30.08,NW,315,6.0,10.0,46,0.00,,,0.00,meteohub,2013-08-13 18:14:00,
2013-08-13 13:19:00,75.0,52.9,30.08,North,0,6.0,8.0,46,0.00,,,0.00,meteohub,2013-08-13 18:19:00,
2013-08-13 13:24:00,74.8,52.7,30.08,North,0,11.0,11.0,46,0.00,,,0.00,meteohub,2013-08-13 18:24:00,
2013-08-13 13:29:00,75.0,51.6,30.08,West,270,8.0,10.0,44,0.00,,,0.00,meteohub,2013-08-13 18:29:00,
2013-08-13 13:35:00,73.4,50.2,30.08,NE,45,7.0,13.0,44,0.00,,,0.00,meteohub,2013-08-13 18:35:00,
2013-08-13 13:40:00,71.8,49.8,30.08,North,0,5.0,13.0,46,0.00,,,0.00,meteohub,2013-08-13 18:40:00,
2013-08-13 13:45:00,72.5,51.6,30.07,West,270,3.0,9.0,48,0.00,,,0.00,meteohub,2013-08-13 18:45:00,
2013-08-13 13:50:00,74.1,53.2,30.07,East,90,4.0,8.0,48,0.00,,,0.00,meteohub,2013-08-13 18:50:00,
2013-08-13 13:55:00,74.7,53.1,30.07,SE,135,5.0,8.0,47,0.00,,,0.00,meteohub,2013-08-13 18:55:00,
2013-08-13 14:00:00,74.1,53.8,30.07,East,90,4.0,8.0,49,0.00,,,0.00,meteohub,2013-08-13 19:00:00,
2013-08-13 14:06:00,74.7,55.4,30.07,East,90,5.0,8.0,51,0.00,,,0.00,meteohub,2013-08-13 19:06:00,
2013-08-13 14:11:00,75.7,54.1,30.07,NE,45,5.0,8.0,47,0.00,,,0.00,meteohub,2013-08-13 19:11:00,
2013-08-13 14:16:00,73.8,51.1,30.07,North,0,9.0,9.0,45,0.00,,,0.00,meteohub,2013-08-13 19:16:00,
2013-08-13 14:21:00,72.1,49.6,30.07,North,0,5.0,11.0,45,0.00,,,0.00,meteohub,2013-08-13 19:21:00,
2013-08-13 14:26:00,72.9,51.4,30.07,East,90,5.0,11.0,47,0.00,,,0.00,meteohub,2013-08-13 19:26:00,
2013-08-13 14:32:00,74.1,52.0,30.07,NNE,23,5.0,11.0,46,0.00,,,0.00,meteohub,2013-08-13 19:32:00,
2013-08-13 14:37:00,74.8,51.4,30.07,NE,45,5.0,9.0,44,0.00,,,0.00,meteohub,2013-08-13 19:37:00,
2013-08-13 14:42:00,75.0,52.9,30.07,NE,45,11.0,15.0,46,0.00,,,0.00,meteohub,2013-08-13 19:42:00,
2013-08-13 14:47:00,73.4,50.7,30.06,North,0,6.0,15.0,45,0.00,,,0.00,meteohub,2013-08-13 19:47:00,
2013-08-13 14:52:00,72.3,49.8,30.07,NE,45,6.0,15.0,45,0.00,,,0.00,meteohub,2013-08-13 19:52:00,
2013-08-13 14:57:00,73.0,51.6,30.06,NE,45,6.0,15.0,47,0.00,,,0.00,meteohub,2013-08-13 19:57:00,
2013-08-13 15:02:00,73.8,51.1,30.07,North,0,8.0,10.0,45,0.00,,,0.00,meteohub,2013-08-13 20:02:00,
2013-08-13 15:07:00,75.2,51.1,30.06,NW,315,4.0,8.0,43,0.00,,,0.00,meteohub,2013-08-13 20:07:00,
2013-08-13 15:13:00,77.2,51.6,30.06,North,0,5.0,8.0,41,0.00,,,0.00,meteohub,2013-08-13 20:13:00,
2013-08-13 15:18:00,76.5,52.3,30.06,East,90,9.0,9.0,43,0.00,,,0.00,meteohub,2013-08-13 20:18:00,
2013-08-13 15:23:00,74.7,51.3,30.06,NE,45,8.0,9.0,44,0.00,,,0.00,meteohub,2013-08-13 20:23:00,
2013-08-13 15:28:00,72.9,50.4,30.06,ENE,68,5.0,11.0,45,0.00,,,0.00,meteohub,2013-08-13 20:28:00,
2013-08-13 15:33:00,73.0,51.1,30.06,NE,45,4.0,11.0,46,0.00,,,0.00,meteohub,2013-08-13 20:33:00,
2013-08-13 15:38:00,73.6,50.9,30.06,NE,45,8.0,11.0,45,0.00,,,0.00,meteohub,2013-08-13 20:38:00,
2013-08-13 15:43:00,75.0,52.2,30.06,East,90,5.0,9.0,45,0.00,,,0.00,meteohub,2013-08-13 20:43:00,
2013-08-13 15:49:00,76.8,53.2,30.06,NE,45,8.0,9.0,44,0.00,,,0.00,meteohub,2013-08-13 20:49:00,
2013-08-13 15:54:00,77.2,52.9,30.06,North,0,11.0,11.0,43,0.00,,,0.00,meteohub,2013-08-13 20:54:00,
2013-08-13 15:59:00,76.6,53.1,30.06,NE,45,8.0,11.0,44,0.00,,,0.00,meteohub,2013-08-13 20:59:00,
2013-08-13 16:04:00,76.6,51.8,30.06,North,0,5.0,11.0,42,0.00,,,0.00,meteohub,2013-08-13 21:04:00,
2013-08-13 16:09:00,76.6,51.3,30.05,North,0,5.0,11.0,41,0.00,,,0.00,meteohub,2013-08-13 21:09:00,
2013-08-13 16:14:00,77.7,52.2,30.06,North,0,8.0,11.0,41,0.00,,,0.00,meteohub,2013-08-13 21:14:00,
2013-08-13 16:19:00,76.8,52.0,30.05,NE,45,14.0,14.0,42,0.00,,,0.00,meteohub,2013-08-13 21:19:00,
2013-08-13 16:24:00,76.1,51.3,30.05,NE,45,8.0,11.0,42,0.00,,,0.00,meteohub,2013-08-13 21:24:00,
2013-08-13 16:29:00,76.3,51.4,30.05,East,90,6.0,14.0,42,0.00,,,0.00,meteohub,2013-08-13 21:29:00,
2013-08-13 16:35:00,76.1,52.0,30.05,ENE,68,6.0,14.0,43,0.00,,,0.00,meteohub,2013-08-13 21:35:00,
2013-08-13 16:40:00,76.5,51.6,30.05,East,90,7.0,14.0,42,0.00,,,0.00,meteohub,2013-08-13 21:40:00,
2013-08-13 16:45:00,77.2,51.6,30.04,SW,225,2.0,10.0,41,0.00,,,0.00,meteohub,2013-08-13 21:45:00,
2013-08-13 16:50:00,79.5,53.8,30.05,East,90,7.0,10.0,41,0.00,,,0.00,meteohub,2013-08-13 21:50:00,
2013-08-13 16:55:00,78.6,51.6,30.04,SE,135,10.0,10.0,39,0.00,,,0.00,meteohub,2013-08-13 21:55:00,
2013-08-13 17:00:00,77.5,51.3,30.04,East,90,8.0,12.0,40,0.00,,,0.00,meteohub,2013-08-13 22:00:00,
2013-08-13 17:05:00,77.5,51.3,30.04,East,90,8.0,12.0,40,0.00,,,0.00,meteohub,2013-08-13 22:05:00,
2013-08-13 17:11:00,76.3,51.4,30.04,NE,45,4.0,12.0,42,0.00,,,0.00,meteohub,2013-08-13 22:11:00,
2013-08-13 17:16:00,76.1,51.3,30.04,East,90,4.0,8.0,42,0.00,,,0.00,meteohub,2013-08-13 22:16:00,
2013-08-13 17:21:00,75.9,51.3,30.04,SE,135,4.0,8.0,42,0.00,,,0.00,meteohub,2013-08-13 22:21:00,
2013-08-13 17:26:00,75.2,51.1,30.04,NE,45,2.0,4.0,43,0.00,,,0.00,meteohub,2013-08-13 22:26:00,
2013-08-13 17:31:00,73.8,49.8,30.04,NE,45,3.0,4.0,43,0.00,,,0.00,meteohub,2013-08-13 22:31:00,
2013-08-13 17:36:00,73.4,49.5,30.03,North,0,2.0,4.0,43,0.00,,,0.00,meteohub,2013-08-13 22:36:00,
2013-08-13 17:41:00,75.7,51.6,30.03,North,0,5.0,8.0,43,0.00,,,0.00,meteohub,2013-08-13 22:41:00,
2013-08-13 17:46:00,77.0,51.4,30.04,North,0,2.0,8.0,41,0.00,,,0.00,meteohub,2013-08-13 22:46:00,
2013-08-13 17:51:00,78.8,52.5,30.03,SE,135,2.0,8.0,40,0.00,,,0.00,meteohub,2013-08-13 22:51:00,
2013-08-13 17:56:00,79.9,52.7,30.03,East,90,2.0,8.0,39,0.00,,,0.00,meteohub,2013-08-13 22:56:00,
2013-08-13 18:01:00,79.9,52.7,30.03,SE,135,3.0,6.0,39,0.00,,,0.00,meteohub,2013-08-13 23:01:00,
2013-08-13 18:06:00,81.7,54.3,30.03,SE,135,0.0,6.0,39,0.00,,,0.00,meteohub,2013-08-13 23:06:00,
2013-08-13 18:12:00,80.6,51.3,30.04,NE,45,8.0,8.0,36,0.00,,,0.00,meteohub,2013-08-13 23:12:00,
2013-08-13 18:17:00,78.1,51.8,30.04,NE,45,8.0,8.0,40,0.00,,,0.00,meteohub,2013-08-13 23:17:00,
2013-08-13 18:22:00,76.5,51.1,30.04,NE,45,8.0,9.0,41,0.00,,,0.00,meteohub,2013-08-13 23:22:00,
2013-08-13 18:27:00,75.6,50.2,30.04,NNE,23,6.0,9.0,41,0.00,,,0.00,meteohub,2013-08-13 23:27:00,
2013-08-13 18:32:00,75.6,50.2,30.03,NE,45,4.0,9.0,41,0.00,,,0.00,meteohub,2013-08-13 23:32:00,
2013-08-13 18:37:00,75.7,50.4,30.03,NE,45,4.0,8.0,41,0.00,,,0.00,meteohub,2013-08-13 23:37:00,
2013-08-13 18:42:00,76.1,50.7,30.04,NE,45,2.0,7.0,41,0.00,,,0.00,meteohub,2013-08-13 23:42:00,
2013-08-13 18:47:00,76.5,51.1,30.03,North,0,5.0,6.0,41,0.00,,,0.00,meteohub,2013-08-13 23:47:00,
2013-08-13 18:52:00,76.1,50.7,30.04,NE,45,3.0,6.0,41,0.00,,,0.00,meteohub,2013-08-13 23:52:00,
2013-08-13 18:57:00,76.5,51.1,30.03,SE,135,2.0,6.0,41,0.00,,,0.00,meteohub,2013-08-13 23:57:00,
2013-08-13 19:02:00,76.8,51.3,30.03,NE,45,2.0,6.0,41,0.00,,,0.00,meteohub,2013-08-14 00:02:00,
2013-08-13 19:07:00,76.3,50.9,30.03,NE,45,4.0,6.0,41,0.00,,,0.00,meteohub,2013-08-14 00:07:00,
2013-08-13 19:13:00,75.9,51.8,30.03,East,90,2.0,4.0,43,0.00,,,0.00,meteohub,2013-08-14 00:13:00,
2013-08-13 19:18:00,76.3,53.4,30.03,South,180,3.0,4.0,45,0.00,,,0.00,meteohub,2013-08-14 00:18:00,
2013-08-13 19:23:00,77.7,54.1,30.03,SE,135,2.0,4.0,44,0.00,,,0.00,meteohub,2013-08-14 00:23:00,
2013-08-13 19:28:00,78.4,54.7,30.03,SE,135,2.0,4.0,44,0.00,,,0.00,meteohub,2013-08-14 00:28:00,
2013-08-13 19:33:00,79.2,55.4,30.03,SE,135,2.0,4.0,44,0.00,,,0.00,meteohub,2013-08-14 00:33:00,
2013-08-13 19:38:00,81.0,55.8,30.03,South,180,2.0,2.0,42,0.00,,,0.00,meteohub,2013-08-14 00:38:00,
2013-08-13 19:43:00,81.7,55.8,30.03,SE,135,2.0,2.0,41,0.00,,,0.00,meteohub,2013-08-14 00:43:00,
2013-08-13 19:48:00,81.3,54.0,30.03,SE,135,1.0,2.0,39,0.00,,,0.00,meteohub,2013-08-14 00:48:00,
2013-08-13 19:53:00,79.3,52.2,30.04,South,180,2.0,2.0,39,0.00,,,0.00,meteohub,2013-08-14 00:53:00,
2013-08-13 19:58:00,77.2,51.6,30.03,South,180,2.0,2.0,41,0.00,,,0.00,meteohub,2013-08-14 00:58:00,
2013-08-13 20:03:00,75.7,51.1,30.03,South,180,2.0,2.0,42,0.00,,,0.00,meteohub,2013-08-14 01:03:00,
2013-08-13 20:08:00,75.0,51.6,30.04,South,180,2.0,2.0,44,0.00,,,0.00,meteohub,2013-08-14 01:08:00,
2013-08-13 20:14:00,74.5,51.1,30.04,South,180,2.0,2.0,44,0.00,,,0.00,meteohub,2013-08-14 01:14:00,
2013-08-13 20:19:00,73.6,50.9,30.04,South,180,3.0,3.0,45,0.00,,,0.00,meteohub,2013-08-14 01:19:00,
2013-08-13 20:24:00,71.8,50.5,30.04,South,180,2.0,3.0,47,0.00,,,0.00,meteohub,2013-08-14 01:24:00,
2013-08-13 20:29:00,70.5,50.4,30.03,South,180,2.0,3.0,49,0.00,,,0.00,meteohub,2013-08-14 01:29:00,
2013-08-13 20:34:00,69.3,50.4,30.04,South,180,2.0,3.0,51,0.00,,,0.00,meteohub,2013-08-14 01:34:00,
2013-08-13 20:39:00,68.4,50.0,30.04,East,90,2.0,3.0,52,0.00,,,0.00,meteohub,2013-08-14 01:39:00,
2013-08-13 20:44:00,67.1,49.8,30.04,SE,135,2.0,2.0,54,0.00,,,0.00,meteohub,2013-08-14 01:44:00,
2013-08-13 20:49:00,66.0,49.5,30.04,SE,135,1.0,2.0,55,0.00,,,0.00,meteohub,2013-08-14 01:49:00,
2013-08-13 20:54:00,65.7,49.5,30.04,South,180,1.0,2.0,56,0.00,,,0.00,meteohub,2013-08-14 01:54:00,
2013-08-13 20:59:00,65.1,49.5,30.04,SW,225,0.0,2.0,57,0.00,,,0.00,meteohub,2013-08-14 01:59:00,
2013-08-13 21:04:00,65.1,49.5,30.04,SW,225,0.0,2.0,57,0.00,,,0.00,meteohub,2013-08-14 02:04:00,
2013-08-13 21:10:00,64.2,50.0,30.05,West,270,2.0,2.0,60,0.00,,,0.00,meteohub,2013-08-14 02:10:00,
2013-08-13 21:15:00,64.0,50.7,30.04,West,270,2.0,2.0,62,0.00,,,0.00,meteohub,2013-08-14 02:15:00,
2013-08-13 21:20:00,63.7,51.3,30.05,SW,225,3.0,3.0,64,0.00,,,0.00,meteohub,2013-08-14 02:20:00,
2013-08-13 21:25:00,63.3,51.4,30.05,SW,225,0.0,3.0,65,0.00,,,0.00,meteohub,2013-08-14 02:25:00,
2013-08-13 21:30:00,62.8,51.3,30.04,SSE,158,0.0,3.0,66,0.00,,,0.00,meteohub,2013-08-14 02:30:00,
2013-08-13 21:35:00,62.2,51.1,30.05,SE,135,1.0,3.0,67,0.00,,,0.00,meteohub,2013-08-14 02:35:00,
2013-08-13 21:40:00,61.7,51.1,30.04,South,180,3.0,3.0,68,0.00,,,0.00,meteohub,2013-08-14 02:40:00,
2013-08-13 21:45:00,61.3,51.1,30.05,South,180,2.0,3.0,69,0.00,,,0.00,meteohub,2013-08-14 02:45:00,
2013-08-13 21:50:00,60.8,50.5,30.05,SE,135,2.0,3.0,69,0.00,,,0.00,meteohub,2013-08-14 02:50:00,
2013-08-13 21:56:00,60.3,50.4,30.05,SE,135,3.0,3.0,70,0.00,,,0.00,meteohub,2013-08-14 02:56:00,
2013-08-13 22:01:00,59.9,50.2,30.05,East,90,2.0,4.0,70,0.00,,,0.00,meteohub,2013-08-14 03:01:00,
2013-08-13 22:06:00,59.9,50.5,30.05,NE,45,3.0,4.0,71,0.00,,,0.00,meteohub,2013-08-14 03:06:00,
2013-08-13 22:11:00,59.9,50.5,30.05,NE,45,3.0,4.0,71,0.00,,,0.00,meteohub,2013-08-14 03:11:00,
2013-08-13 22:16:00,60.1,51.1,30.05,East,90,2.0,3.0,72,0.00,,,0.00,meteohub,2013-08-14 03:16:00,
2013-08-13 22:21:00,60.3,51.3,30.06,East,90,2.0,3.0,72,0.00,,,0.00,meteohub,2013-08-14 03:21:00,
2013-08-13 22:26:00,60.3,51.3,30.05,East,90,0.0,3.0,72,0.00,,,0.00,meteohub,2013-08-14 03:26:00,
2013-08-13 22:32:00,59.9,50.9,30.06,South,180,0.0,2.0,72,0.00,,,0.00,meteohub,2013-08-14 03:32:00,
2013-08-13 22:37:00,59.7,50.7,30.05,South,180,2.0,2.0,72,0.00,,,0.00,meteohub,2013-08-14 03:37:00,
2013-08-13 22:42:00,59.5,50.9,30.06,South,180,2.0,2.0,73,0.00,,,0.00,meteohub,2013-08-14 03:42:00,
2013-08-13 22:47:00,59.4,50.7,30.06,South,180,2.0,2.0,73,0.00,,,0.00,meteohub,2013-08-14 03:47:00,
2013-08-13 22:52:00,59.2,50.5,30.06,SE,135,3.0,3.0,73,0.00,,,0.00,meteohub,2013-08-14 03:52:00,
2013-08-13 22:57:00,58.6,50.4,30.05,SE,135,3.0,3.0,74,0.00,,,0.00,meteohub,2013-08-14 03:57:00,
2013-08-13 23:01:00,58.5,50.2,30.05,SE,135,3.0,3.0,74,0.00,,,0.00,meteohub,2013-08-14 04:01:00,
2013-08-13 23:03:00,58.5,50.2,30.06,SE,135,3.0,3.0,74,0.00,,,0.00,meteohub,2013-08-14 04:03:00,
2013-08-13 23:08:00,57.9,49.6,30.06,SE,135,3.0,3.0,74,0.00,,,0.00,meteohub,2013-08-14 04:08:00,
2013-08-13 23:13:00,57.4,49.1,30.06,SE,135,3.0,3.0,74,0.00,,,0.00,meteohub,2013-08-14 04:13:00,
2013-08-13 23:18:00,57.2,49.3,30.06,South,180,3.0,3.0,75,0.00,,,0.00,meteohub,2013-08-14 04:18:00,
2013-08-13 23:23:00,57.2,49.3,30.06,SW,225,2.0,3.0,75,0.00,,,0.00,meteohub,2013-08-14 04:23:00,
2013-08-13 23:28:00,57.2,49.6,30.06,SW,225,2.0,3.0,76,0.00,,,0.00,meteohub,2013-08-14 04:28:00,
2013-08-13 23:33:00,56.8,49.6,30.06,SW,225,2.0,3.0,77,0.00,,,0.00,meteohub,2013-08-14 04:33:00,
2013-08-13 23:38:00,56.7,49.5,30.06,West,270,2.0,3.0,77,0.00,,,0.00,meteohub,2013-08-14 04:38:00,
2013-08-13 23:44:00,56.5,49.6,30.06,SW,225,2.0,2.0,78,0.00,,,0.00,meteohub,2013-08-14 04:44:00,
2013-08-13 23:49:00,56.5,49.6,30.07,West,270,2.0,3.0,78,0.00,,,0.00,meteohub,2013-08-14 04:49:00,
2013-08-13 23:54:00,56.1,49.6,30.07,SW,225,2.0,3.0,79,0.00,,,0.00,meteohub,2013-08-14 04:54:00,
2013-08-13 23:59:00,55.9,49.5,30.07,SW,225,2.0,3.0,79,0.00,,,0.00,meteohub,2013-08-14 04:59:00,